Location: Unspecified
(0.0000°N, 0.0000°E)
Time: 17:19:23
(UTC+00:00)

ITAMSAT 1 - Pass Details

Date: 30 September 2021
Orbit: 783 x 797 km, 98.9° (Epoch: 22 October)

Event Time Altitude Azimuth Distance (km) Brightness Sun altitude
Rises 18:06:54 0° 146° (SE) 3,287 10.6 -4.3°
Reaches altitude 10° 18:09:33 10° 134° (SE) 2,353 9.7 -4.9°
Maximum altitude 18:13:53 27° 77° (ENE) 1,474 8.5 -6.0°
Drops below altitude 10° 18:18:11 10° 20° (NNE) 2,338 9.9 -7.1°
Sets 18:20:48 0° 9° (N) 3,261 10.7 -7.7°
